Terminal Aerodrome Forecast
Issued by NWS

Home | Current Version | Previous Version | Text Only | Print | Product List | Glossary On
Versions: 1 2 3 4 5 6 7 8 9 10 11 12 13 14 15 16 17 18 19 20 21
000
FTUS43 KDVN 271000 AAE
TAFCID
TAF AMD
KCID 271008Z 2710/2806 27004KT 4SM -RA BR OVC011
      TEMPO 2710/2712 2SM -RA BR SCT005 OVC010
     FM271300 27013KT 5SM BR OVC008
     FM271600 29016G24KT P6SM BKN015
     FM272000 29010KT P6SM BKN025=

USA.gov is the U.S. government's official web portal to all federal, state and local government web resources and services.